Location: Newark
(35.4036°N, 80.4356°W)
Time: 13:31:21
(UTC+00:00)

Envisat - Pass Details

Date: 25 August 2019
Orbit: 764 x 766 km, 98.1° (Epoch: 23 October)

Event Time Altitude Azimuth Distance (km) Brightness Sun altitude
Rises 00:22:42 0° 191° (S) 3,215 6.2 -5.3°
Reaches altitude 10° 00:25:14 10° 201° (SSW) 2,294 5.5 -5.8°
Maximum altitude 00:29:42 31° 263° (W) 1,315 5.1 -6.7°
Drops below altitude 10° 00:34:11 10° 325° (NW) 2,308 6.4 -7.5°
Sets 00:36:45 0° 336° (NNW) 3,238 7.0 -8.0°
